This is the latest recevied weather packets stored in our database for station/object JA6YCL-13. If no packets are shown the sender has not sent any weather packets the latest 10 day(s).
| Time | Temp. | Humidity | Pressure | Rain* | Wind** | Luminosity | Snow |
|---|---|---|---|---|---|---|---|
| 1777726200 | 16.67° C | 71% | 1013.3 hPa | 0 mm | - | - | - |
| 1777725449 | 16.67° C | 71% | 1013.2 hPa | 0 mm | - | - | - |
| 1777724719 | 16.67° C | 71% | 1013.3 hPa | 0 mm | - | - | - |
| 1777724001 | 16.67° C | 70% | 1013.4 hPa | 0 mm | - | - | - |
| 1777723211 | 16.67° C | 69% | 1013.3 hPa | 0 mm | - | - | - |
| 1777722451 | 16.67° C | 70% | 1013.2 hPa | 0 mm | - | - | - |
| 1777721581 | 17.22° C | 68% | 1013.1 hPa | 0 mm | - | - | - |
| 1777720756 | 17.78° C | 67% | 1012.9 hPa | 0 mm | - | - | - |
| 1777719977 | 17.78° C | 65% | 1012.7 hPa | 0 mm | - | - | - |
| 1777719152 | 18.33° C | 64% | 1012.6 hPa | 0 mm | - | - | - |
| 1777718292 | 19.44° C | 60% | 1012.6 hPa | 0 mm | - | - | - |
| 1777717397 | 20° C | 51% | 1012.6 hPa | 0 mm | - | - | - |
| 1777716566 | 20.56° C | 50% | 1012.6 hPa | 0 mm | - | - | - |
| 1777715666 | 21.11° C | 49% | 1012.4 hPa | 0 mm | - | - | - |
| 1777714888 | 21.11° C | 47% | 1012.2 hPa | 0 mm | - | - | - |
| 1777714061 | 21.67° C | 47% | 1012.1 hPa | 0 mm | - | - | - |
| 1777713211 | 22.22° C | 45% | 1012 hPa | 0 mm | - | - | - |
| 1777712481 | 22.22° C | 44% | 1011.9 hPa | 0 mm | - | - | - |
| 1777711744 | 22.78° C | 46% | 1011.8 hPa | 0 mm | - | - | - |
| 1777710881 | 23.33° C | 46% | 1011.7 hPa | 0 mm | - | - | - |
| 1777710153 | 23.89° C | 46% | 1011.6 hPa | 0 mm | - | - | - |
| 1777709393 | 23.89° C | 46% | 1011.7 hPa | 0 mm | - | - | - |
| 1777708551 | 24.44° C | 46% | 1011.7 hPa | 0 mm | - | - | - |
| 1777707666 | 24.44° C | 46% | 1011.7 hPa | 0 mm | - | - | - |
| 1777706784 | 25° C | 44% | 1011.8 hPa | 0 mm | - | - | - |
* Rain latest hour (hover to see other rain measurements)
** Current wind speed in m/s (hover to see current wind gust speed)